Location: ????
(30.2663°N, 31.2484°E)
Time: 07:15:08
(UTC+00:00)

NOAA 16 DEB - Visible Passes

Search period start: 16 July 2024 00:00
Search period end: 26 July 2024 00:00
Orbit: 791 x 819 km, 98.8° (Epoch: 15 July)

Date Brightness Start Highest point End Pass type
(mag) Time Alt. Az. Time Alt. Az. Time Alt. Az.
16 Jul ? 20:06:26 11° NE 20:06:26 11° NE 20:07:00 10° NE visible
16 Jul ? 21:47:29 23° NNW 21:47:29 23° NNW 21:49:22 10° NNW visible
17 Jul ? 21:22:00 26° N 21:22:00 26° N 21:24:13 10° N visible
18 Jul ? 20:56:31 23° NNE 20:56:31 23° NNE 20:58:43 10° N visible
19 Jul ? 20:31:02 17° NE 20:31:02 17° NE 20:32:46 10° NNE visible
19 Jul ? 22:12:04 15° NW 22:12:04 15° NW 22:13:07 10° NNW visible
20 Jul ? 20:05:31 10° NE 20:05:31 10° NE 20:05:42 10° NE visible
20 Jul ? 21:46:33 21° NNW 21:46:33 21° NNW 21:48:16 10° NNW visible
21 Jul ? 21:21:01 24° N 21:21:01 24° N 21:23:02 10° N visible
22 Jul ? 20:55:29 21° NNE 20:55:29 21° NNE 20:57:27 10° N visible
23 Jul ? 20:29:55 16° NE 20:29:55 16° NE 20:31:24 10° NNE visible
23 Jul ? 22:10:57 15° NW 22:10:57 15° NW 22:11:51 10° NNW visible
24 Jul ? 21:45:23 20° NNW 21:45:23 20° NNW 21:46:55 10° NNW visible
25 Jul ? 21:19:48 22° N 21:19:48 22° N 21:21:36 10° N visible
